Casper, WY

1:11 AM MDT on March 23, 2017 (GMT -0600)
Natrona County International

Weather History for KCPR - May, 2013

Change the Weather History Date:

Saturday, May 25, 2013

  Actual Average Record
Temperature  
Mean Temperature 61 °F 55 °F  
Max Temperature 82 °F 70 °F 85 °F (1969)
Min Temperature 40 °F 40 °F 29 °F (2002)
Degree Days  
Heating Degree Days 4 10  
Month to date heating degree days 279 346  
Since 1 July heating degree days 7142 7388  
Cooling Degree Days 0 0  
Month to date cooling degree days 10 0  
Year to date cooling degree days 10 0  
Growing Degree Days 12 (Base 50)    
Moisture  
Dew Point 30 °F    
Average Humidity 42    
Maximum Humidity 73    
Minimum Humidity 10    
Precipitation  
Precipitation 0.00 in 0.06 in 0.78 in (1962)
Month to date precipitation 1.79 1.64  
Year to date precipitation 5.95 4.83  
Snow  
Snow 0.00 in 0.00 in - ()
Month to date snowfall 3.5 2.8  
Since 1 July snowfall 85.7 74.7  
Snow Depth 0.00 in    
Sea Level Pressure  
Sea Level Pressure 29.80 in    
Wind  
Wind Speed 8 mph (WSW)    
Max Wind Speed 24 mph    
Max Gust Speed 33 mph    
Visibility 10 miles    
Events      
T = Trace of Precipitation, MM = Missing Value Source: NWS Daily Summary

Daily Weather History Graph

Daily Weather History Graph

Search for Another Location

Airport or City:

Trip Planner

Search our weather history database for the weather conditions in past years. The results will help you decide how hot, cold, wet, or windy it might be!

Date:

Astronomy

May. 25, 2013 Rise Set
Actual Time 5:33 AM MDT 8:32 PM MDT
Civil Twilight 5:00 AM MDT 9:06 PM MDT
Nautical Twilight 4:17 AM MDT 9:49 PM MDT
Astronomical Twilight 3:26 AM MDT 10:40 PM MDT
Moon 9:22 PM MDT (5/25) 6:03 AM MDT (5/25)
Length of Visible Light 16h 06m
Length of Day
14h 58m
Waxing Gibbous, 99% of the Moon is Illuminated
May 25
Waxing Gibbous
May 31
Last Quarter
Jun 8
New
Jun 16
First Quarter
Jun 23
Full

Hourly Weather History & Observations

Time (MDT) Temp. Windchill Dew Point Humidity Pressure Visibility Wind Dir Wind Speed Gust Speed Precip Events Conditions
12:53 AM 45.0 °F 42.6 °F 36.0 °F 71% 29.86 in 10.0 mi WSW 4.6 mph - N/A   Clear
1:53 AM 46.0 °F 44.8 °F 30.0 °F 54% 29.83 in 10.0 mi WSW 3.5 mph - N/A   Clear
2:53 AM 41.0 °F - 33.1 °F 73% 29.84 in 10.0 mi Calm Calm - N/A   Clear
3:53 AM 42.1 °F 36.6 °F 33.1 °F 70% 29.84 in 10.0 mi NNW 9.2 mph - N/A   Clear
4:53 AM 41.0 °F 37.1 °F 33.1 °F 73% 29.85 in 10.0 mi WNW 5.8 mph - N/A   Clear
5:53 AM 43.0 °F 39.5 °F 34.0 °F 71% 29.86 in 10.0 mi NW 5.8 mph - N/A   Clear
6:53 AM 46.9 °F - 36.0 °F 66% 29.87 in 10.0 mi Calm Calm - N/A   Clear
7:53 AM 55.0 °F - 39.0 °F 55% 29.86 in 10.0 mi Variable 3.5 mph - N/A   Clear
8:12 AM 55.4 °F - 39.2 °F 54% 30.01 in 10.0 mi Calm Calm - N/A   Clear
8:53 AM 55.9 °F - 39.0 °F 53% 29.87 in 10.0 mi Calm Calm - N/A   Clear
9:53 AM 63.0 °F - 37.0 °F 38% 29.86 in 10.0 mi Calm Calm - N/A   Clear
10:53 AM 66.0 °F - 39.0 °F 37% 29.83 in 10.0 mi Variable 3.5 mph - N/A   Clear
11:53 AM 71.1 °F - 37.0 °F 29% 29.81 in 10.0 mi South 6.9 mph - N/A   Clear
12:53 PM 75.9 °F - 27.0 °F 16% 29.78 in 10.0 mi SW 15.0 mph 24.2 mph N/A   Clear
1:53 PM 79.0 °F - 26.1 °F 14% 29.74 in 10.0 mi SW 15.0 mph 18.4 mph N/A   Clear
2:53 PM 82.0 °F - 23.0 °F 11% 29.73 in 10.0 mi SW 24.2 mph 33.4 mph N/A   Clear
3:53 PM 78.1 °F - 23.0 °F 13% 29.73 in 10.0 mi WSW 16.1 mph 25.3 mph N/A   Clear
4:53 PM 78.1 °F - 23.0 °F 13% 29.72 in 10.0 mi SSW 13.8 mph - N/A   Clear
5:53 PM 80.1 °F - 21.9 °F 12% 29.70 in 10.0 mi SW 20.7 mph 25.3 mph N/A   Clear
6:53 PM 78.1 °F - 18.0 °F 10% 29.70 in 10.0 mi WSW 16.1 mph - N/A   Clear
7:53 PM 72.0 °F - 19.9 °F 14% 29.70 in 10.0 mi WSW 10.4 mph - N/A   Clear
8:53 PM 59.0 °F - 26.1 °F 28% 29.75 in 10.0 mi SW 4.6 mph - N/A   Clear
9:53 PM 57.0 °F - 25.0 °F 29% 29.76 in 10.0 mi SW 3.5 mph - N/A   Clear
10:53 PM 54.0 °F - 26.1 °F 34% 29.76 in 10.0 mi WSW 6.9 mph - N/A   Clear
11:53 PM 51.1 °F - 27.0 °F 39% 29.76 in 10.0 mi West 8.1 mph - N/A   Clear